Year,Month,Day,Hour,Minute,Value (Times are PST for temperature in C)
2015,04,26,00,00,5.30
2015,04,26,00,01,5.30
2015,04,26,00,02,5.30
2015,04,26,00,03,5.30
2015,04,26,00,04,5.30
2015,04,26,00,05,5.30
2015,04,26,00,06,5.30
2015,04,26,00,07,5.30
2015,04,26,00,08,5.30
2015,04,26,00,09,5.20
2015,04,26,00,10,5.20
2015,04,26,00,11,5.20
2015,04,26,00,12,5.20
2015,04,26,00,13,5.20
2015,04,26,00,14,5.20
2015,04,26,00,15,5.20
2015,04,26,00,16,5.20
2015,04,26,00,17,5.20
2015,04,26,00,18,5.30
2015,04,26,00,19,5.30
2015,04,26,00,20,5.30
2015,04,26,00,21,5.30
2015,04,26,00,22,5.30
2015,04,26,00,23,5.20
2015,04,26,00,24,5.20
2015,04,26,00,25,5.20
2015,04,26,00,26,5.20
2015,04,26,00,27,5.20
2015,04,26,00,28,5.20
2015,04,26,00,29,5.20
2015,04,26,00,30,5.10
2015,04,26,00,31,5.10
2015,04,26,00,32,5.10
2015,04,26,00,33,5.10
2015,04,26,00,34,5.10
2015,04,26,00,35,5.10
2015,04,26,00,36,5.10
2015,04,26,00,37,5.10
2015,04,26,00,38,5.10
2015,04,26,00,39,5.10
2015,04,26,00,40,5.10
2015,04,26,00,41,5.10
2015,04,26,00,42,5.10
2015,04,26,00,43,5.00
2015,04,26,00,44,5.10
2015,04,26,00,45,5.00
2015,04,26,00,46,5.00
2015,04,26,00,47,5.00
2015,04,26,00,48,5.00
2015,04,26,00,49,5.00
2015,04,26,00,50,5.00
2015,04,26,00,51,5.00
2015,04,26,00,52,5.00
2015,04,26,00,53,5.00
2015,04,26,00,54,4.90
2015,04,26,00,55,4.90
2015,04,26,00,56,4.90
2015,04,26,00,57,4.90
2015,04,26,00,58,4.90
2015,04,26,00,59,4.90
2015,04,26,01,00,4.90
2015,04,26,01,01,4.80
2015,04,26,01,02,4.80
2015,04,26,01,03,4.80
2015,04,26,01,04,4.80
2015,04,26,01,05,4.80
2015,04,26,01,06,4.80
2015,04,26,01,07,4.80
2015,04,26,01,08,4.80
2015,04,26,01,09,4.80
2015,04,26,01,10,4.70
2015,04,26,01,11,4.70
2015,04,26,01,12,4.70
2015,04,26,01,13,4.70
2015,04,26,01,14,4.70
2015,04,26,01,15,4.70
2015,04,26,01,16,4.70
2015,04,26,01,17,4.70
2015,04,26,01,18,4.60
2015,04,26,01,19,4.60
2015,04,26,01,20,4.60
2015,04,26,01,21,4.60
2015,04,26,01,22,4.60
2015,04,26,01,23,4.60
2015,04,26,01,24,4.60
2015,04,26,01,25,4.60
2015,04,26,01,26,4.60
2015,04,26,01,27,4.60
2015,04,26,01,28,4.60
2015,04,26,01,29,4.60
2015,04,26,01,30,4.60
2015,04,26,01,31,4.50
2015,04,26,01,32,4.50
2015,04,26,01,33,4.50
2015,04,26,01,34,4.50
2015,04,26,01,35,4.50
2015,04,26,01,36,4.50
2015,04,26,01,37,4.50
2015,04,26,01,38,4.50
2015,04,26,01,39,4.50
2015,04,26,01,40,4.50
2015,04,26,01,41,4.50
2015,04,26,01,42,4.50
2015,04,26,01,43,4.50
2015,04,26,01,44,4.50
2015,04,26,01,45,4.50
2015,04,26,01,46,4.50
2015,04,26,01,47,4.60
2015,04,26,01,48,4.60
2015,04,26,01,49,4.60
2015,04,26,01,50,4.60
2015,04,26,01,51,4.60
2015,04,26,01,52,4.60
2015,04,26,01,53,4.60
2015,04,26,01,54,4.60
2015,04,26,01,55,4.60
2015,04,26,01,56,4.60
2015,04,26,01,57,4.60
2015,04,26,01,58,4.60
2015,04,26,01,59,4.60
2015,04,26,02,00,4.60
2015,04,26,02,01,4.60
2015,04,26,02,02,4.60
2015,04,26,02,03,4.60
2015,04,26,02,04,4.60
2015,04,26,02,05,4.60
2015,04,26,02,06,4.60
2015,04,26,02,07,4.60
2015,04,26,02,08,4.60
2015,04,26,02,09,4.60
2015,04,26,02,10,4.60
2015,04,26,02,11,4.60
2015,04,26,02,12,4.60
2015,04,26,02,13,4.60
2015,04,26,02,14,4.60
2015,04,26,02,15,4.60
2015,04,26,02,16,4.60
2015,04,26,02,17,4.60
2015,04,26,02,18,4.60
2015,04,26,02,19,4.60
2015,04,26,02,20,4.60
2015,04,26,02,21,4.60
2015,04,26,02,22,4.50
2015,04,26,02,23,4.50
2015,04,26,02,24,4.50
2015,04,26,02,25,4.50
2015,04,26,02,26,4.50
2015,04,26,02,27,4.50
2015,04,26,02,28,4.50
2015,04,26,02,29,4.50
2015,04,26,02,30,4.50
2015,04,26,02,31,4.50
2015,04,26,02,32,4.50
2015,04,26,02,33,4.50
2015,04,26,02,34,4.50
2015,04,26,02,35,4.50
2015,04,26,02,36,4.50
2015,04,26,02,37,4.50
2015,04,26,02,38,4.50
2015,04,26,02,39,4.50
2015,04,26,02,40,4.50
2015,04,26,02,41,4.50
2015,04,26,02,42,4.40
2015,04,26,02,43,4.40
2015,04,26,02,44,4.40
2015,04,26,02,45,4.40
2015,04,26,02,46,4.40
2015,04,26,02,47,4.40
2015,04,26,02,48,4.40
2015,04,26,02,49,4.40
2015,04,26,02,50,4.40
2015,04,26,02,51,4.40
2015,04,26,02,52,4.40
2015,04,26,02,53,4.40
2015,04,26,02,54,4.40
2015,04,26,02,55,4.40
2015,04,26,02,56,4.40
2015,04,26,02,57,4.50
2015,04,26,02,58,4.50
2015,04,26,02,59,4.50
2015,04,26,03,00,4.50
2015,04,26,03,01,4.50
2015,04,26,03,02,4.50
2015,04,26,03,03,4.50
2015,04,26,03,04,4.50
2015,04,26,03,05,4.50
2015,04,26,03,06,4.60
2015,04,26,03,07,4.60
2015,04,26,03,08,4.60
2015,04,26,03,09,4.70
2015,04,26,03,10,4.70
2015,04,26,03,11,4.70
2015,04,26,03,12,4.70
2015,04,26,03,13,4.80
2015,04,26,03,14,4.80
2015,04,26,03,15,4.80
2015,04,26,03,16,4.80
2015,04,26,03,17,4.80
2015,04,26,03,18,4.80
2015,04,26,03,19,4.80
2015,04,26,03,20,4.80
2015,04,26,03,21,4.80
2015,04,26,03,22,4.80
2015,04,26,03,23,4.80
2015,04,26,03,24,4.80
2015,04,26,03,25,4.80
2015,04,26,03,26,4.80
2015,04,26,03,27,4.90
2015,04,26,03,28,4.90
2015,04,26,03,29,4.90
2015,04,26,03,30,4.90
2015,04,26,03,31,4.90
2015,04,26,03,32,4.90
2015,04,26,03,33,4.90
2015,04,26,03,34,4.90
2015,04,26,03,35,4.90
2015,04,26,03,36,4.90
2015,04,26,03,37,4.90
2015,04,26,03,38,4.90
2015,04,26,03,39,4.90
2015,04,26,03,40,4.90
2015,04,26,03,41,4.90
2015,04,26,03,42,4.90
2015,04,26,03,43,4.90
2015,04,26,03,44,4.90
2015,04,26,03,45,4.90
2015,04,26,03,46,4.90
2015,04,26,03,47,4.90
2015,04,26,03,48,4.90
2015,04,26,03,49,4.90
2015,04,26,03,50,4.90
2015,04,26,03,51,4.90
2015,04,26,03,52,4.90
2015,04,26,03,53,4.90
2015,04,26,03,54,4.90
2015,04,26,03,55,4.90
2015,04,26,03,56,4.90
2015,04,26,03,57,4.90
2015,04,26,03,58,4.90
2015,04,26,03,59,4.90
2015,04,26,04,00,4.90
2015,04,26,04,01,4.90
2015,04,26,04,02,4.90
2015,04,26,04,03,4.90
2015,04,26,04,04,5.00
2015,04,26,04,05,5.00
2015,04,26,04,06,5.00
2015,04,26,04,07,5.00
2015,04,26,04,08,5.00
2015,04,26,04,09,5.10
2015,04,26,04,10,5.10
2015,04,26,04,11,5.10
2015,04,26,04,12,5.10
2015,04,26,04,13,5.10
2015,04,26,04,14,5.10
2015,04,26,04,15,5.10
2015,04,26,04,16,5.20
2015,04,26,04,17,5.30
2015,04,26,04,18,5.40
2015,04,26,04,19,5.40
2015,04,26,04,20,5.40
2015,04,26,04,21,5.40
2015,04,26,04,22,5.40
2015,04,26,04,23,5.40
2015,04,26,04,24,5.40
2015,04,26,04,25,5.50
2015,04,26,04,26,5.60
2015,04,26,04,27,5.70
2015,04,26,04,28,5.70
2015,04,26,04,29,5.90
2015,04,26,04,30,6.00
2015,04,26,04,31,6.10
2015,04,26,04,32,6.20
2015,04,26,04,33,6.30
2015,04,26,04,34,6.30
2015,04,26,04,35,6.40
2015,04,26,04,36,6.50
2015,04,26,04,37,6.60
2015,04,26,04,38,6.60
2015,04,26,04,39,6.70
2015,04,26,04,40,6.70
2015,04,26,04,41,6.70
2015,04,26,04,42,6.70
2015,04,26,04,43,6.70
2015,04,26,04,44,6.70
2015,04,26,04,45,6.70
2015,04,26,04,46,6.80
2015,04,26,04,47,6.80
2015,04,26,04,48,6.90
2015,04,26,04,49,6.90
2015,04,26,04,50,6.90
2015,04,26,04,51,6.90
2015,04,26,04,52,6.90
2015,04,26,04,53,6.90
2015,04,26,04,54,6.90
2015,04,26,04,55,6.90
2015,04,26,04,56,6.90
2015,04,26,04,57,6.90
2015,04,26,04,58,6.90
2015,04,26,04,59,6.80
2015,04,26,05,00,6.80
2015,04,26,05,01,6.80
2015,04,26,05,02,6.80
2015,04,26,05,03,6.80
2015,04,26,05,04,6.80
2015,04,26,05,05,6.80
2015,04,26,05,06,6.80
2015,04,26,05,07,6.80
2015,04,26,05,08,6.80
2015,04,26,05,09,6.80
2015,04,26,05,10,6.80
2015,04,26,05,11,6.80
2015,04,26,05,12,6.80
2015,04,26,05,13,6.80
2015,04,26,05,14,6.80
2015,04,26,05,15,6.80
2015,04,26,05,16,6.80
2015,04,26,05,17,6.80
2015,04,26,05,18,6.90
2015,04,26,05,19,6.90
2015,04,26,05,20,6.90
2015,04,26,05,21,6.90
2015,04,26,05,22,6.90
2015,04,26,05,23,6.90
2015,04,26,05,24,6.90
2015,04,26,05,25,7.00
2015,04,26,05,26,7.00
2015,04,26,05,27,7.00
2015,04,26,05,28,7.00
2015,04,26,05,29,7.10
2015,04,26,05,30,7.10
2015,04,26,05,31,7.10
2015,04,26,05,32,7.10
2015,04,26,05,33,7.20
2015,04,26,05,34,7.20
2015,04,26,05,35,7.20
2015,04,26,05,36,7.20
2015,04,26,05,37,7.20
2015,04,26,05,38,7.20
2015,04,26,05,39,7.20
2015,04,26,05,40,7.20
2015,04,26,05,41,7.20
2015,04,26,05,42,7.30
2015,04,26,05,43,7.30
2015,04,26,05,44,7.30
2015,04,26,05,45,7.30
2015,04,26,05,46,7.30
2015,04,26,05,47,7.30
2015,04,26,05,48,7.30
2015,04,26,05,49,7.30
2015,04,26,05,50,7.30
2015,04,26,05,51,7.30
2015,04,26,05,52,7.30
2015,04,26,05,53,7.30
2015,04,26,05,54,7.30
2015,04,26,05,55,7.30
2015,04,26,05,56,7.30
2015,04,26,05,57,7.30
2015,04,26,05,58,7.30
2015,04,26,05,59,7.30
2015,04,26,06,00,7.30
2015,04,26,06,01,7.40
2015,04,26,06,02,7.40
2015,04,26,06,03,7.40
2015,04,26,06,04,7.50
2015,04,26,06,05,7.50
2015,04,26,06,06,7.60
2015,04,26,06,07,7.60
2015,04,26,06,08,7.60
2015,04,26,06,09,7.60
2015,04,26,06,10,7.60
2015,04,26,06,11,7.60
2015,04,26,06,12,7.60
2015,04,26,06,13,7.60
2015,04,26,06,14,7.60
2015,04,26,06,15,7.60
2015,04,26,06,16,7.60
2015,04,26,06,17,7.60
2015,04,26,06,18,7.60
2015,04,26,06,19,7.60
2015,04,26,06,20,7.60
2015,04,26,06,21,7.60
2015,04,26,06,22,7.60
2015,04,26,06,23,7.50
2015,04,26,06,24,7.50
2015,04,26,06,25,7.50
2015,04,26,06,26,7.60
2015,04,26,06,27,7.50
2015,04,26,06,28,7.60
2015,04,26,06,29,7.60
2015,04,26,06,30,7.60
2015,04,26,06,31,7.60
2015,04,26,06,32,7.60
2015,04,26,06,33,7.60
2015,04,26,06,34,7.70
2015,04,26,06,35,7.70
2015,04,26,06,36,7.70
2015,04,26,06,37,7.70
2015,04,26,06,38,7.70
2015,04,26,06,39,7.70
2015,04,26,06,40,7.70
2015,04,26,06,41,7.70
2015,04,26,06,42,7.70
2015,04,26,06,43,7.80
2015,04,26,06,44,7.80
2015,04,26,06,45,7.80
2015,04,26,06,46,7.80
2015,04,26,06,47,7.80
2015,04,26,06,48,7.80
2015,04,26,06,49,7.80
2015,04,26,06,50,7.80
2015,04,26,06,51,7.80
2015,04,26,06,52,7.80
2015,04,26,06,53,7.80
2015,04,26,06,54,7.80
2015,04,26,06,55,7.80
2015,04,26,06,56,7.80
2015,04,26,06,57,7.80
2015,04,26,06,58,7.80
2015,04,26,06,59,7.80
2015,04,26,07,00,7.80
2015,04,26,07,01,7.80
2015,04,26,07,02,7.80
2015,04,26,07,03,7.80
2015,04,26,07,04,7.80
2015,04,26,07,05,7.80
2015,04,26,07,06,7.80
2015,04,26,07,07,7.80
2015,04,26,07,08,7.80
2015,04,26,07,09,7.80
2015,04,26,07,10,7.80
2015,04,26,07,11,7.80
2015,04,26,07,12,7.80
2015,04,26,07,13,7.80
2015,04,26,07,14,7.80
2015,04,26,07,15,7.80
2015,04,26,07,16,7.80
2015,04,26,07,17,7.80
2015,04,26,07,18,7.80
2015,04,26,07,19,7.80
2015,04,26,07,20,7.80
2015,04,26,07,21,7.80
2015,04,26,07,22,7.80
2015,04,26,07,23,7.80
2015,04,26,07,24,7.80
2015,04,26,07,25,7.80
2015,04,26,07,26,7.80
2015,04,26,07,27,7.80
2015,04,26,07,28,7.80
2015,04,26,07,29,7.80
2015,04,26,07,30,7.80
2015,04,26,07,31,7.80
2015,04,26,07,32,7.80
2015,04,26,07,33,7.80
2015,04,26,07,34,7.80
2015,04,26,07,35,7.80
2015,04,26,07,36,7.80
2015,04,26,07,37,7.80
2015,04,26,07,38,7.80
2015,04,26,07,39,7.80
2015,04,26,07,40,7.80
2015,04,26,07,41,7.80
2015,04,26,07,42,7.70
2015,04,26,07,43,7.80
2015,04,26,07,44,7.80
2015,04,26,07,45,7.80
2015,04,26,07,46,7.80
2015,04,26,07,47,7.80
2015,04,26,07,48,7.80
2015,04,26,07,49,7.80
2015,04,26,07,50,7.80
2015,04,26,07,51,7.80
2015,04,26,07,52,7.80
2015,04,26,07,53,7.90
2015,04,26,07,54,7.90
2015,04,26,07,55,7.90
2015,04,26,07,56,7.90
2015,04,26,07,57,7.90
2015,04,26,07,58,7.90
2015,04,26,07,59,7.90
2015,04,26,08,00,8.00
2015,04,26,08,01,8.00
2015,04,26,08,02,8.00
2015,04,26,08,03,8.00
2015,04,26,08,04,8.10
2015,04,26,08,05,8.10
2015,04,26,08,06,8.10
2015,04,26,08,07,8.10
2015,04,26,08,08,8.10
2015,04,26,08,09,8.10
2015,04,26,08,10,8.10
2015,04,26,08,11,8.10
2015,04,26,08,12,8.10
2015,04,26,08,13,8.10
2015,04,26,08,14,8.20
2015,04,26,08,15,8.20
2015,04,26,08,16,8.20
2015,04,26,08,17,8.20
2015,04,26,08,18,8.20
2015,04,26,08,19,8.20
2015,04,26,08,20,8.20
2015,04,26,08,21,8.20
2015,04,26,08,22,8.20
2015,04,26,08,23,8.20
2015,04,26,08,24,8.20
2015,04,26,08,25,8.20
2015,04,26,08,26,8.20
2015,04,26,08,27,8.20
2015,04,26,08,28,8.20
2015,04,26,08,29,8.30
2015,04,26,08,30,8.30
2015,04,26,08,31,8.30
2015,04,26,08,32,8.30
2015,04,26,08,33,8.40
2015,04,26,08,34,8.40
2015,04,26,08,35,8.40
2015,04,26,08,36,8.40
2015,04,26,08,37,8.40
2015,04,26,08,38,8.40
2015,04,26,08,39,8.40
2015,04,26,08,40,8.50
2015,04,26,08,41,8.50
2015,04,26,08,42,8.50
2015,04,26,08,43,8.60
2015,04,26,08,44,8.60
2015,04,26,08,45,8.60
2015,04,26,08,46,8.60
2015,04,26,08,47,8.60
2015,04,26,08,48,8.60
2015,04,26,08,49,8.60
2015,04,26,08,50,8.60
2015,04,26,08,51,8.60
2015,04,26,08,52,8.60
2015,04,26,08,53,8.60
2015,04,26,08,54,8.70
2015,04,26,08,55,8.70
2015,04,26,08,56,8.70
2015,04,26,08,57,8.70
2015,04,26,08,58,8.70
2015,04,26,08,59,8.70
2015,04,26,09,00,8.70
2015,04,26,09,01,8.70
2015,04,26,09,02,8.80
2015,04,26,09,03,8.80
2015,04,26,09,04,8.80
2015,04,26,09,05,8.80
2015,04,26,09,06,8.80
2015,04,26,09,07,8.80
2015,04,26,09,08,8.90
2015,04,26,09,09,8.90
2015,04,26,09,10,8.90
2015,04,26,09,11,8.90
2015,04,26,09,12,8.90
2015,04,26,09,13,8.90
2015,04,26,09,14,9.00
2015,04,26,09,15,9.00
2015,04,26,09,16,9.00
2015,04,26,09,17,9.00
2015,04,26,09,18,9.00
2015,04,26,09,19,9.10
2015,04,26,09,20,9.10
2015,04,26,09,21,9.10
2015,04,26,09,22,9.20
2015,04,26,09,23,9.20
2015,04,26,09,24,9.20
2015,04,26,09,25,9.20
2015,04,26,09,26,9.20
2015,04,26,09,27,9.20
2015,04,26,09,28,9.20
2015,04,26,09,29,9.30
2015,04,26,09,30,9.30
2015,04,26,09,31,9.30
2015,04,26,09,32,9.30
2015,04,26,09,33,9.30
2015,04,26,09,34,9.30
2015,04,26,09,35,9.30
2015,04,26,09,36,9.30
2015,04,26,09,37,9.30
2015,04,26,09,38,9.30
2015,04,26,09,39,9.30
2015,04,26,09,40,9.30
2015,04,26,09,41,9.40
2015,04,26,09,42,9.40
2015,04,26,09,43,9.50
2015,04,26,09,44,9.50
2015,04,26,09,45,9.60
2015,04,26,09,46,9.60
2015,04,26,09,47,9.60
2015,04,26,09,48,9.60
2015,04,26,09,49,9.60
2015,04,26,09,50,9.60
2015,04,26,09,51,9.60
2015,04,26,09,52,9.60
2015,04,26,09,53,9.60
2015,04,26,09,54,9.60
2015,04,26,09,55,9.60
2015,04,26,09,56,9.60
2015,04,26,09,57,9.60
2015,04,26,09,58,9.60
2015,04,26,09,59,9.60
2015,04,26,10,00,9.60
2015,04,26,10,01,9.60
2015,04,26,10,02,9.60
2015,04,26,10,03,9.60
2015,04,26,10,04,9.60
2015,04,26,10,05,9.60
2015,04,26,10,06,9.60
2015,04,26,10,07,9.60
2015,04,26,10,08,9.60
2015,04,26,10,09,9.60
2015,04,26,10,10,9.60
2015,04,26,10,11,9.60
2015,04,26,10,12,9.60
2015,04,26,10,13,9.60
2015,04,26,10,14,9.60
2015,04,26,10,15,9.60
2015,04,26,10,16,9.60
2015,04,26,10,17,9.60
2015,04,26,10,18,9.70
2015,04,26,10,19,9.70
2015,04,26,10,20,9.70
2015,04,26,10,21,9.70
2015,04,26,10,22,9.70
2015,04,26,10,23,9.80
2015,04,26,10,24,9.80
2015,04,26,10,25,9.90
2015,04,26,10,26,9.90
2015,04,26,10,27,10.00
2015,04,26,10,28,10.00
2015,04,26,10,29,9.90
2015,04,26,10,30,10.00
2015,04,26,10,31,10.00
2015,04,26,10,32,10.10
2015,04,26,10,33,10.10
2015,04,26,10,34,10.10
2015,04,26,10,35,10.20
2015,04,26,10,36,10.20
2015,04,26,10,37,10.20
2015,04,26,10,38,10.20
2015,04,26,10,39,10.20
2015,04,26,10,40,10.20
2015,04,26,10,41,10.20
2015,04,26,10,42,10.20
2015,04,26,10,43,10.20
2015,04,26,10,44,10.20
2015,04,26,10,45,10.20
2015,04,26,10,46,10.20
2015,04,26,10,47,10.20
2015,04,26,10,48,10.20
2015,04,26,10,49,10.30
2015,04,26,10,50,10.30
2015,04,26,10,51,10.30
2015,04,26,10,52,10.40
2015,04,26,10,53,10.40
2015,04,26,10,54,10.50
2015,04,26,10,55,10.50
2015,04,26,10,56,10.60
2015,04,26,10,57,10.60
2015,04,26,10,58,10.60
2015,04,26,10,59,10.70
2015,04,26,11,00,10.70
2015,04,26,11,01,10.70
2015,04,26,11,02,10.80
2015,04,26,11,03,10.80
2015,04,26,11,04,10.80
2015,04,26,11,05,10.80
2015,04,26,11,06,10.80
2015,04,26,11,07,10.80
2015,04,26,11,08,10.80
2015,04,26,11,09,10.80
2015,04,26,11,10,10.80
2015,04,26,11,11,10.80
2015,04,26,11,12,10.80
2015,04,26,11,13,10.80
2015,04,26,11,14,10.80
2015,04,26,11,15,10.80
2015,04,26,11,16,10.80
2015,04,26,11,17,10.80
2015,04,26,11,18,10.80
2015,04,26,11,19,10.90
2015,04,26,11,20,10.90
2015,04,26,11,21,11.00
2015,04,26,11,22,11.00
2015,04,26,11,23,11.00
2015,04,26,11,24,11.10
2015,04,26,11,25,11.10
2015,04,26,11,26,11.10
2015,04,26,11,27,11.20
2015,04,26,11,28,11.20
2015,04,26,11,29,11.20
2015,04,26,11,30,11.20
2015,04,26,11,31,11.20
2015,04,26,11,32,11.20
2015,04,26,11,33,11.30
2015,04,26,11,34,11.30
2015,04,26,11,35,11.30
2015,04,26,11,36,11.30
2015,04,26,11,37,11.30
2015,04,26,11,38,11.30
2015,04,26,11,39,11.40
2015,04,26,11,40,11.30
2015,04,26,11,41,11.30
2015,04,26,11,42,11.30
2015,04,26,11,43,11.30
2015,04,26,11,44,11.30
2015,04,26,11,45,11.30
2015,04,26,11,46,11.30
2015,04,26,11,47,11.30
2015,04,26,11,48,11.30
2015,04,26,11,49,11.30
2015,04,26,11,50,11.20
2015,04,26,11,51,11.20
2015,04,26,11,52,11.20
2015,04,26,11,53,11.10
2015,04,26,11,54,11.10
2015,04,26,11,55,11.10
2015,04,26,11,56,11.10
2015,04,26,11,57,11.20
2015,04,26,11,58,11.20
2015,04,26,11,59,11.20
2015,04,26,12,00,11.20
2015,04,26,12,01,11.20
2015,04,26,12,02,11.20
2015,04,26,12,03,11.20
2015,04,26,12,04,11.20
2015,04,26,12,05,11.20
2015,04,26,12,06,11.30
2015,04,26,12,07,11.30
2015,04,26,12,08,11.30
2015,04,26,12,09,11.40
2015,04,26,12,10,11.40
2015,04,26,12,11,11.40
2015,04,26,12,12,11.50
2015,04,26,12,13,11.50
2015,04,26,12,14,11.50
2015,04,26,12,15,11.60
2015,04,26,12,16,11.60
2015,04,26,12,17,11.60
2015,04,26,12,18,11.60
2015,04,26,12,19,11.60
2015,04,26,12,20,11.70
2015,04,26,12,21,11.70
2015,04,26,12,22,11.70
2015,04,26,12,23,11.70
2015,04,26,12,24,11.70
2015,04,26,12,25,11.70
2015,04,26,12,26,11.80
2015,04,26,12,27,11.80
2015,04,26,12,28,11.80
2015,04,26,12,29,11.80
2015,04,26,12,30,11.70
2015,04,26,12,31,11.80
2015,04,26,12,32,11.80
2015,04,26,12,33,11.80
2015,04,26,12,34,11.80
2015,04,26,12,35,11.80
2015,04,26,12,36,11.80
2015,04,26,12,37,11.80
2015,04,26,12,38,11.90
2015,04,26,12,39,11.90
2015,04,26,12,40,11.90
2015,04,26,12,41,11.90
2015,04,26,12,42,11.90
2015,04,26,12,43,11.90
2015,04,26,12,44,11.90
2015,04,26,12,45,12.00
2015,04,26,12,46,12.00
2015,04,26,12,47,12.00
2015,04,26,12,48,11.90
2015,04,26,12,49,11.90
2015,04,26,12,50,11.90
2015,04,26,12,51,11.90
2015,04,26,12,52,12.00
2015,04,26,12,53,12.00
2015,04,26,12,54,11.90
2015,04,26,12,55,11.90
2015,04,26,12,56,11.90
2015,04,26,12,57,11.90
2015,04,26,12,58,11.80
2015,04,26,12,59,11.80
2015,04,26,13,00,11.80
2015,04,26,13,01,11.80
2015,04,26,13,02,11.80
2015,04,26,13,03,11.70
2015,04,26,13,04,11.70
2015,04,26,13,05,11.70
2015,04,26,13,06,11.70
2015,04,26,13,07,11.70
2015,04,26,13,08,11.70
2015,04,26,13,09,11.70
2015,04,26,13,10,11.70
2015,04,26,13,11,11.70
2015,04,26,13,12,11.60
2015,04,26,13,13,11.60
2015,04,26,13,14,11.60
2015,04,26,13,15,11.60
2015,04,26,13,16,11.60
2015,04,26,13,17,11.60
2015,04,26,13,18,11.60
2015,04,26,13,19,11.60
2015,04,26,13,20,11.60
2015,04,26,13,21,11.60
2015,04,26,13,22,11.50
2015,04,26,13,23,11.40
2015,04,26,13,24,11.40
2015,04,26,13,25,11.40
2015,04,26,13,26,11.40
2015,04,26,13,27,11.40
2015,04,26,13,28,11.40
2015,04,26,13,29,11.40
2015,04,26,13,30,11.40
2015,04,26,13,31,11.40
2015,04,26,13,32,11.40
2015,04,26,13,33,11.30
2015,04,26,13,34,11.30
2015,04,26,13,35,11.30
2015,04,26,13,36,11.30
2015,04,26,13,37,11.30
2015,04,26,13,38,11.30
2015,04,26,13,39,11.30
2015,04,26,13,40,11.30
2015,04,26,13,41,11.30
2015,04,26,13,42,11.30
2015,04,26,13,43,11.30
2015,04,26,13,44,11.30
2015,04,26,13,45,11.30
2015,04,26,13,46,11.30
2015,04,26,13,47,11.30
2015,04,26,13,48,11.30
2015,04,26,13,49,11.20
2015,04,26,13,50,11.20
2015,04,26,13,51,11.20
2015,04,26,13,52,11.20
2015,04,26,13,53,11.20
2015,04,26,13,54,11.20
2015,04,26,13,55,11.20
2015,04,26,13,56,11.10
2015,04,26,13,57,11.10
2015,04,26,13,58,11.10
2015,04,26,13,59,11.10
2015,04,26,14,00,11.10
2015,04,26,14,01,11.00
2015,04,26,14,02,11.00
2015,04,26,14,03,11.10
2015,04,26,14,04,11.00
2015,04,26,14,05,11.00
2015,04,26,14,06,11.00
2015,04,26,14,07,11.00
2015,04,26,14,08,11.00
2015,04,26,14,09,11.00
2015,04,26,14,10,11.00
2015,04,26,14,11,11.00
2015,04,26,14,12,11.00
2015,04,26,14,13,11.00
2015,04,26,14,14,11.00
2015,04,26,14,15,10.90
2015,04,26,14,16,10.90
2015,04,26,14,17,11.00
2015,04,26,14,18,11.00
2015,04,26,14,19,10.90
2015,04,26,14,20,10.90
2015,04,26,14,21,10.90
2015,04,26,14,22,10.90
2015,04,26,14,23,10.90
2015,04,26,14,24,10.90
2015,04,26,14,25,10.90
2015,04,26,14,26,10.90
2015,04,26,14,27,10.90
2015,04,26,14,28,10.90
2015,04,26,14,29,10.90
2015,04,26,14,30,10.90
2015,04,26,14,31,10.90
2015,04,26,14,32,10.90
2015,04,26,14,33,10.90
2015,04,26,14,34,10.90
2015,04,26,14,35,10.90
2015,04,26,14,36,10.90
2015,04,26,14,37,10.90
2015,04,26,14,38,10.90
2015,04,26,14,39,10.90
2015,04,26,14,40,11.00
2015,04,26,14,41,11.00
2015,04,26,14,42,11.00
2015,04,26,14,43,11.00
2015,04,26,14,44,11.00
2015,04,26,14,45,11.10
2015,04,26,14,46,11.10
2015,04,26,14,47,11.10
2015,04,26,14,48,11.10
2015,04,26,14,49,11.10
2015,04,26,14,50,11.20
2015,04,26,14,51,11.20
2015,04,26,14,52,11.20
2015,04,26,14,53,11.20
2015,04,26,14,54,11.30
2015,04,26,14,55,11.30
2015,04,26,14,56,11.30
2015,04,26,14,57,11.30
2015,04,26,14,58,11.30
2015,04,26,14,59,11.30
2015,04,26,15,00,11.30
2015,04,26,15,01,11.30
2015,04,26,15,02,11.20
2015,04,26,15,03,11.20
2015,04,26,15,04,11.20
2015,04,26,15,05,11.20
2015,04,26,15,06,11.20
2015,04,26,15,07,11.20
2015,04,26,15,08,11.20
2015,04,26,15,09,11.20
2015,04,26,15,10,11.20
2015,04,26,15,11,11.20
2015,04,26,15,12,11.20
2015,04,26,15,13,11.20
2015,04,26,15,14,11.10
2015,04,26,15,15,11.10
2015,04,26,15,16,11.10
2015,04,26,15,17,11.10
2015,04,26,15,18,11.10
2015,04,26,15,19,11.10
2015,04,26,15,20,11.10
2015,04,26,15,21,11.10
2015,04,26,15,22,11.00
2015,04,26,15,23,11.00
2015,04,26,15,24,11.00
2015,04,26,15,25,11.00
2015,04,26,15,26,11.00
2015,04,26,15,27,10.90
2015,04,26,15,28,10.90
2015,04,26,15,29,10.90
2015,04,26,15,30,10.90
2015,04,26,15,31,11.00
2015,04,26,15,32,11.00
2015,04,26,15,33,11.00
2015,04,26,15,34,11.00
2015,04,26,15,35,11.00
2015,04,26,15,36,11.00
2015,04,26,15,37,11.10
2015,04,26,15,38,11.10
2015,04,26,15,39,11.10
2015,04,26,15,40,11.10
2015,04,26,15,41,11.10
2015,04,26,15,42,11.10
2015,04,26,15,43,11.10
2015,04,26,15,44,11.10
2015,04,26,15,45,11.10
2015,04,26,15,46,11.10
2015,04,26,15,47,11.20
2015,04,26,15,48,11.20
2015,04,26,15,49,11.20
2015,04,26,15,50,11.20
2015,04,26,15,51,11.20
2015,04,26,15,52,11.20
2015,04,26,15,53,11.20
2015,04,26,15,54,11.10
2015,04,26,15,55,11.20
2015,04,26,15,56,11.10
2015,04,26,15,57,11.10
2015,04,26,15,58,11.10
2015,04,26,15,59,11.10
2015,04,26,16,00,11.10
2015,04,26,16,01,11.10
2015,04,26,16,02,11.10
2015,04,26,16,03,11.10
2015,04,26,16,04,11.00
2015,04,26,16,05,11.00
2015,04,26,16,06,11.00
2015,04,26,16,07,11.00
2015,04,26,16,08,11.00
2015,04,26,16,09,11.00
2015,04,26,16,10,11.00
2015,04,26,16,11,11.00
2015,04,26,16,12,11.00
2015,04,26,16,13,11.00
2015,04,26,16,14,11.10
2015,04,26,16,15,11.10
2015,04,26,16,16,11.10
2015,04,26,16,17,11.00
2015,04,26,16,18,11.10
2015,04,26,16,19,11.10
2015,04,26,16,20,11.10
2015,04,26,16,21,11.10
2015,04,26,16,22,11.10
2015,04,26,16,23,11.10
2015,04,26,16,24,11.10
2015,04,26,16,25,11.10
2015,04,26,16,26,11.10
2015,04,26,16,27,11.10
2015,04,26,16,28,11.10
2015,04,26,16,29,11.10
2015,04,26,16,30,11.10
2015,04,26,16,31,11.10
2015,04,26,16,32,11.10
2015,04,26,16,33,11.10
2015,04,26,16,34,11.10
2015,04,26,16,35,11.10
2015,04,26,16,36,11.10
2015,04,26,16,37,11.10
2015,04,26,16,38,11.10
2015,04,26,16,39,11.10
2015,04,26,16,40,11.10
2015,04,26,16,41,11.10
2015,04,26,16,42,11.10
2015,04,26,16,43,11.10
2015,04,26,16,44,11.10
2015,04,26,16,45,11.10
2015,04,26,16,46,11.10
2015,04,26,16,47,11.10
2015,04,26,16,48,11.10
2015,04,26,16,49,11.10
2015,04,26,16,50,11.10
2015,04,26,16,51,11.10
2015,04,26,16,52,11.10
2015,04,26,16,53,11.10
2015,04,26,16,54,11.10
2015,04,26,16,55,11.00
2015,04,26,16,56,11.00
2015,04,26,16,57,11.00
2015,04,26,16,58,11.00
2015,04,26,16,59,11.00
2015,04,26,17,00,11.00
2015,04,26,17,01,11.00
2015,04,26,17,02,11.00
2015,04,26,17,03,11.00
2015,04,26,17,04,11.00
2015,04,26,17,05,11.00
2015,04,26,17,06,11.00
2015,04,26,17,07,11.00
2015,04,26,17,08,11.00
2015,04,26,17,09,11.00
2015,04,26,17,10,10.90
2015,04,26,17,11,10.90
2015,04,26,17,12,10.90
2015,04,26,17,13,10.90
2015,04,26,17,14,10.90
2015,04,26,17,15,10.90
2015,04,26,17,16,10.90
2015,04,26,17,17,10.90
2015,04,26,17,18,10.90
2015,04,26,17,19,10.90
2015,04,26,17,20,10.90
2015,04,26,17,21,10.90
2015,04,26,17,22,10.90
2015,04,26,17,23,10.90
2015,04,26,17,24,10.90
2015,04,26,17,25,10.90
2015,04,26,17,26,10.90
2015,04,26,17,27,10.80
2015,04,26,17,28,10.80
2015,04,26,17,29,10.80
2015,04,26,17,30,10.80
2015,04,26,17,31,10.80
2015,04,26,17,32,10.80
2015,04,26,17,33,10.80
2015,04,26,17,34,10.80
2015,04,26,17,35,10.80
2015,04,26,17,36,10.80
2015,04,26,17,37,10.80
2015,04,26,17,38,10.80
2015,04,26,17,39,10.80
2015,04,26,17,40,10.80
2015,04,26,17,41,10.80
2015,04,26,17,42,10.80
2015,04,26,17,43,10.80
2015,04,26,17,44,10.80
2015,04,26,17,45,10.80
2015,04,26,17,46,10.80